Regional Weather Roundup
Issued by NWS

Home | Current Version | Previous Version | Text Only | Print | Product List | Glossary On
Versions: 1 2 3 4 5 6 7 8 9 10 11 12 13 14 15 16 17 18 19 20 21 22 23 24 25 26 27 28 29 30 31 32 33 34 35 36 37 38 39 40 41 42 43 44 45 46 47 48 49 50
000
ASUS43 KFSD 210510
RWRSD

WEATHER ROUNDUP FOR SOUTH DAKOTA
NATIONAL WEATHER SERVICE SIOUX FALLS SD
1200 AM CDT TUE APR 21 2015

NOTE: "FAIR" INDICATES FEW OR NO CLOUDS BELOW 12,000 FEET WITH NO
SIGNIFICANT WEATHER AND/OR OBSTRUCTIONS TO VISIBILITY.


SDZ001>005-009-010-012>017-210600-
NORTHWEST AND NORTH CENTRAL SOUTH DAKOTA

CITY           SKY/WX    TMP DP  RH WIND       PRES   REMARKS
BUFFALO          N/A     32  20  61 W6        29.79F WCI  26
FAITH            N/A     32  18  56 W8        29.84F WCI  25
MOBRIDGE       CLEAR     32  16  51 CALM      29.76S
$$

SDZ012>016-024>037-041>051-057-063-072>074-210600-
SOUTHWEST AND SOUTH CENTRAL SOUTH DAKOTA

CITY           SKY/WX    TMP DP  RH WIND       PRES   REMARKS
RAPID CTY ARPT NOT AVBL
PIERRE         CLEAR     37  20  50 NW9       29.81R
CUSTER         CLEAR     31  17  56 CALM      29.89S
ELLSWORTH AFB  CLEAR     30  22  72 NW8       29.89S WCI  22
PHILIP         PTCLDY    36  32  85 W5        29.87R
PINE RIDGE     CLEAR     28  22  78 E3        29.91R
SPEARFISH      FAIR      32  23  69 SW10      29.91S WCI  24
WINNER         FAIR      41  17  38 W14       29.83R
$$

SDZ004>011-016>023-039-040-210600-
NORTHEAST SOUTH DAKOTA

CITY           SKY/WX    TMP DP  RH WIND       PRES   REMARKS
ABERDEEN       CLEAR     28  21  75 W9        29.73F WCI  19
WATERTOWN      CLEAR     36  26  67 NW13      29.68F
BROOKINGS      CLEAR     34  27  75 NW7       29.72R WCI  28
SISSETON         N/A     36  28  73 N13       29.66S
$$

SDZ017-020-022-023-036>040-048>070-210600-
SOUTHEAST SOUTH DAKOTA

CITY           SKY/WX    TMP DP  RH WIND       PRES   REMARKS
SIOUX FALLS    CLEAR     33  20  58 NW5       29.74R WCI  29
HURON          CLEAR     27  15  61 W8        29.76R WCI  19
CHAMBERLAIN    CLEAR     35  12  38 NW7       29.80S WCI  29
MITCHELL       CLEAR     37  10  32 NW10      29.77R
YANKTON        CLEAR     39   9  28 W13       29.76S
$$

ABBREVIATIONS USED IN REMARKS
   TC - TEMPERATURE IN CELSIUS
  WCI - WIND CHILL INDEX
   HX - HEAT INDEX
  VSB - VISIBILITY



USA.gov is the U.S. government's official web portal to all federal, state and local government web resources and services.